Temp
60 60 59 59 59 60 60 58 58 58 58 59 59 59 58 57 57 56 54 62 64 68 69 69 68 67 66 65 65 65 65 65 65 64 64 63 63 62 62 62 62 63 64
58 58 58 59 58 57 57 56 56 56 55 56 57 56 56 56 56 55 54 53 61 65 67 67 67 66 66 65 64 64 64 64 64 63 63 63 62 61 61 61 61 61 62
58 58 57 57 56 56 56 55 55 54 54 56 54 55 55 54 54 54 54 57 53 61 63 65 65 65 65 64 64 64 64 63 63 63 63 62 61 61 60 59 60 60 61
59 57 56 56 55 55 54 53 53 53 52 51 50 51 51 53 53 53 53 52 52 54 57 61 62 63 62 62 63 63 63 62 62 62 62 61 61 60 59 59 59 59 60
59 56 55 54 55 54 53 53 52 51 49 50 53 50 49 48 49 53 51 51 50 50 52 59 59 60 61 61 61 61 62 62 62 61 61 60 59 58 58 58 58 59 59
58 56 55 54 54 53 52 51 50 50 49 48 55 51 47 46 46 45 47 51 49 48 49 50 48 53 59 59 60 60 61 61 60 59 59 59 58 58 57 57 57 58 59
57 55 53 53 52 52 50 50 48 48 47 46 45 44 44 44 44 44 45 44 46 47 47 47 46 45 47 56 58 59 60 60 58 58 58 58 57 57 57 57 57 57 58
56 55 52 51 50 50 49 48 47 46 44 44 42 40 37 41 43 44 43 44 41 44 45 47 46 46 45 44 47 55 57 58 57 57 57 56 56 56 57 57 57 57 57
55 52 51 49 48 47 46 45 45 45 43 42 42 41 35 33 35 40 41 40 41 41 41 42 45 45 44 43 45 47 52 53 54 55 55 55 55 56 56 56 55 56 57
52 52 50 48 47 46 45 44 46 42 42 40 40 45 40 40 34 31 37 38 40 42 40 39 41 42 43 42 47 50 52 51 51 53 53 54 55 55 55 55 55 55 56
50 51 49 48 46 45 44 43 43 42 42 40 39 39 38 36 35 32 29 33 36 38 39 39 38 39 42 42 40 44 50 49 50 50 52 52 53 53 53 53 54 54 55
47 48 49 47 45 44 44 43 42 42 40 40 39 39 38 36 35 33 30 30 31 35 38 38 37 38 39 39 46 47 48 47 47 48 49 50 50 51 52 52 53 53 54
45 45 46 45 46 45 45 43 42 41 40 39 39 39 38 37 37 36 33 32 30 32 34 36 38 38 42 37 39 46 46 45 45 46 47 48 48 49 49 50 51 52 53
46 47 48 48 46 47 46 43 42 41 40 39 39 38 37 37 37 37 35 31 28 30 30 32 35 35 35 36 40 45 38 43 44 44 45 45 46 47 47 48 49 50 51
49 49 47 48 45 45 44 43 41 41 40 39 38 38 37 37 36 36 37 35 30 23 27 29 30 34 34 35 37 37 36 41 43 43 43 44 45 46 46 47 47 48 49
49 48 48 46 45 45 44 43 41 41 40 38 38 38 37 39 39 36 35 35 32 28 23 28 29 31 33 37 38 36 35 41 40 41 42 43 43 44 44 45 45 46 47
49 49 48 46 47 45 45 43 43 42 40 39 39 38 38 39 36 35 33 32 30 28 25 26 28 29 29 29 32 32 35 34 35 40 41 42 42 42 42 43 43 43 44
48 48 46 47 46 45 44 43 42 42 40 39 38 39 39 43 35 32 30 29 28 28 26 23 25 27 27 28 29 29 34 38 34 39 40 40 41 41 41 41 41 41 42
47 47 47 45 45 44 44 44 42 41 40 39 39 38 38 36 32 30 30 28 27 31 26 23 25 26 26 28 29 30 30 30 35 38 38 39 39 39 40 40 40 40 41
44 45 46 46 46 45 45 44 41 38 38 39 39 37 36 34 32 30 29 28 28 25 25 24 25 26 26 29 27 25 27 29 29 34 35 36 37 38 39 39 38 38 40
45 46 45 46 46 45 45 41 40 38 37 36 36 37 35 36 39 33 30 26 26 24 23 23 23 24 25 25 24 26 25 26 27 29 28 28 30 30 32 37 37 36 38
47 45 45 44 43 46 42 40 38 35 36 35 34 33 33 37 36 36 35 34 30 24 22 21 22 22 22 23 24 23 23 23 22 27 25 26 29 28 30 32 38 37 35
45 45 44 43 41 41 40 40 38 34 36 34 32 32 33 35 32 30 32 31 30 31 31 24 21 21 21 24 24 23 23 23 23 27 25 24 26 26 30 36 39 39 39
43 42 42 42 40 41 38 38 37 34 33 33 31 30 30 29 28 29 27 26 26 26 27 28 24 24 25 26 27 28 27 27 26 27 26 22 25 24 29 32 37 38 39
41 39 41 41 40 36 37 37 34 31 32 31 32 32 31 28 31 34 28 26 25 26 31 32 32 32 32 32 32 29 24 23 21 25 28 26 23 23 24 25 30 37 37
41 41 39 39 38 34 36 36 35 28 29 28 29 30 34 30 32 32 25 23 21 25 24 26 26 27 28 28 31 27 26 22 23 22 26 26 25 23 21 25 26 26 28
MSLP
1022.60 1022.75 1023.08 1023.25 1023.52 1023.40 1023.54 1023.57 1023.72 1023.93 1023.85 1023.85 1023.87 1023.87 1024.01 1024.14 1024.09 1024.09 1023.95 1023.54 1023.37 1023.42 1023.16 1023.21 1023.34 1023.54 1023.65 1023.90 1023.89 1023.70 1023.72 1023.51 1023.58 1023.45 1023.36 1023.21 1023.16 1023.20 1023.08 1022.66 1022.23 1021.81 1021.40
1022.58 1022.86 1023.31 1023.41 1023.50 1023.76 1023.73 1023.74 1023.91 1024.03 1024.14 1024.08 1024.19 1024.31 1024.40 1024.37 1024.31 1024.13 1024.03 1023.76 1023.54 1023.43 1023.35 1023.42 1023.48 1023.56 1023.66 1023.87 1023.97 1023.94 1023.85 1023.72 1023.64 1023.55 1023.46 1023.19 1023.32 1023.45 1023.45 1023.11 1022.68 1022.22 1021.76
1022.43 1023.15 1023.49 1023.66 1023.84 1023.61 1023.82 1024.10 1024.26 1024.29 1024.32 1024.31 1024.51 1024.49 1024.56 1024.60 1024.54 1024.39 1024.45 1024.31 1024.16 1023.87 1023.89 1023.88 1023.82 1023.77 1023.76 1023.85 1023.97 1023.90 1023.88 1023.95 1023.72 1023.59 1023.41 1023.43 1023.53 1023.59 1023.52 1023.33 1022.95 1022.47 1021.91
1022.68 1023.31 1023.63 1023.61 1023.74 1023.87 1024.15 1024.36 1024.51 1024.51 1024.64 1024.87 1025.01 1025.00 1024.77 1024.83 1025.12 1025.17 1025.09 1025.02 1024.88 1024.69 1024.53 1024.52 1024.19 1024.37 1024.41 1024.30 1024.05 1023.90 1023.86 1023.97 1023.71 1023.61 1023.57 1023.58 1023.58 1023.51 1023.54 1023.35 1023.00 1022.54 1021.97
1022.88 1023.47 1023.69 1023.87 1023.82 1024.10 1024.38 1024.57 1024.86 1024.98 1025.17 1025.11 1025.06 1025.21 1025.32 1025.69 1025.86 1025.65 1025.66 1025.59 1025.50 1025.15 1024.96 1024.79 1024.75 1024.67 1024.58 1024.51 1024.34 1024.21 1023.87 1023.83 1023.68 1023.68 1023.59 1023.59 1023.65 1023.63 1023.50 1023.36 1022.95 1022.48 1021.91
1023.07 1023.41 1023.64 1023.81 1023.93 1024.20 1024.62 1024.98 1025.25 1025.16 1025.22 1025.40 1025.47 1025.73 1025.86 1026.14 1026.27 1026.27 1026.22 1025.99 1025.98 1025.89 1025.67 1025.44 1025.27 1025.09 1024.76 1024.58 1024.40 1024.14 1023.83 1023.66 1023.64 1023.85 1023.73 1023.57 1023.59 1023.63 1023.52 1023.23 1022.81 1022.23 1021.73
1023.04 1023.38 1023.73 1024.02 1024.28 1024.60 1025.11 1025.11 1025.27 1025.51 1025.62 1025.75 1026.06 1026.32 1026.35 1026.55 1026.54 1026.63 1026.52 1026.58 1026.43 1026.26 1026.11 1025.98 1025.73 1025.59 1025.39 1024.97 1024.70 1024.30 1023.96 1023.63 1023.70 1023.69 1023.64 1023.54 1023.50 1023.49 1023.31 1022.96 1022.53 1021.98 1021.41
1023.17 1023.48 1023.95 1024.41 1024.65 1025.00 1025.30 1025.47 1025.65 1025.83 1026.04 1026.21 1026.51 1026.97 1027.19 1027.00 1026.72 1026.65 1026.73 1026.76 1026.84 1026.49 1026.42 1026.31 1026.08 1025.91 1025.66 1025.53 1025.12 1024.54 1024.11 1023.89 1023.65 1023.61 1023.61 1023.55 1023.47 1023.14 1022.78 1022.44 1022.11 1021.70 1021.16
1023.43 1023.73 1024.22 1024.69 1025.11 1025.32 1025.52 1025.60 1025.69 1025.96 1026.30 1026.64 1026.43 1026.71 1027.44 1027.70 1027.56 1027.12 1026.91 1026.86 1026.65 1026.47 1026.44 1026.46 1026.25 1026.07 1025.81 1025.54 1025.13 1024.74 1024.42 1024.28 1024.04 1023.74 1023.57 1023.41 1023.22 1022.92 1022.39 1021.99 1021.67 1021.25 1020.61
1023.86 1024.21 1024.57 1024.90 1025.22 1025.45 1025.57 1025.48 1025.43 1025.90 1026.14 1026.69 1026.84 1026.69 1026.74 1026.96 1027.39 1027.69 1027.04 1026.66 1026.55 1026.54 1026.34 1026.38 1026.19 1026.03 1025.89 1025.66 1025.21 1024.61 1024.20 1024.02 1024.01 1023.69 1023.38 1023.17 1022.93 1022.68 1022.33 1021.73 1021.31 1020.77 1020.16
1024.38 1024.60 1024.85 1025.04 1025.11 1025.36 1025.90 1025.89 1025.78 1025.96 1026.34 1026.76 1026.83 1026.88 1026.94 1026.95 1026.97 1027.22 1027.22 1026.88 1026.48 1026.02 1025.97 1025.93 1025.80 1025.85 1025.54 1025.39 1025.12 1024.56 1024.12 1024.17 1023.90 1023.59 1023.30 1022.98 1022.68 1022.40 1022.08 1021.66 1021.01 1020.45 1019.83
1024.68 1024.82 1024.91 1025.06 1025.46 1025.51 1025.64 1025.89 1025.78 1026.17 1026.36 1026.46 1026.66 1026.87 1026.94 1027.07 1027.19 1027.33 1027.39 1027.10 1026.88 1026.40 1025.73 1025.50 1025.62 1025.52 1025.33 1025.16 1024.95 1024.51 1024.30 1024.24 1023.96 1023.64 1023.28 1022.89 1022.60 1022.23 1021.76 1021.33 1020.75 1020.05 1019.43
1025.20 1025.23 1025.07 1025.01 1025.05 1025.37 1025.51 1025.77 1025.68 1026.15 1026.39 1026.51 1026.45 1026.49 1026.56 1026.61 1026.61 1026.81 1027.18 1027.22 1027.11 1026.62 1026.30 1025.78 1025.29 1025.13 1025.18 1025.10 1024.99 1024.52 1024.27 1024.01 1023.63 1023.28 1022.95 1022.59 1022.27 1021.85 1021.27 1020.68 1020.17 1019.56 1018.95
1024.93 1024.94 1025.28 1025.27 1024.98 1025.30 1025.36 1025.64 1025.73 1025.77 1025.97 1026.19 1026.27 1026.26 1026.38 1026.59 1026.65 1026.65 1026.82 1027.21 1027.23 1027.00 1026.40 1025.95 1025.53 1025.41 1025.42 1025.25 1024.92 1024.40 1024.16 1023.69 1023.19 1022.74 1022.37 1022.06 1021.66 1021.14 1020.59 1020.01 1019.47 1018.96 1018.52
1024.77 1024.65 1024.85 1025.23 1025.12 1025.35 1025.21 1025.26 1025.92 1025.85 1025.85 1026.12 1026.04 1026.01 1026.18 1026.28 1026.43 1026.60 1026.68 1026.88 1027.12 1027.26 1026.64 1026.13 1026.12 1025.59 1025.64 1025.27 1024.78 1024.21 1023.82 1023.38 1022.83 1022.48 1021.98 1021.53 1021.05 1020.53 1020.03 1019.50 1018.98 1018.55 1018.22
1024.39 1024.58 1024.63 1024.83 1024.95 1025.09 1025.29 1025.01 1025.52 1025.54 1025.68 1025.89 1026.04 1026.03 1026.06 1026.15 1026.14 1026.45 1026.53 1026.64 1026.95 1027.23 1026.99 1026.65 1026.21 1026.00 1025.77 1025.21 1024.57 1024.04 1023.67 1023.06 1022.62 1021.99 1021.48 1021.07 1020.57 1020.10 1019.53 1019.08 1018.73 1018.22 1017.78
1023.97 1024.25 1024.43 1024.63 1024.76 1024.73 1024.90 1024.88 1025.15 1025.41 1025.53 1025.68 1025.71 1026.00 1026.09 1026.05 1026.26 1026.42 1026.66 1026.72 1026.94 1027.04 1027.12 1026.74 1026.23 1025.94 1025.70 1025.34 1024.50 1023.88 1023.25 1022.72 1022.18 1021.69 1021.06 1020.49 1020.15 1019.63 1019.17 1018.67 1018.29 1017.83 1017.37
1023.47 1023.78 1024.18 1024.34 1024.40 1024.63 1024.72 1024.80 1024.90 1025.07 1025.36 1025.53 1025.54 1025.67 1025.82 1025.77 1026.16 1026.40 1026.57 1026.64 1026.75 1026.61 1026.97 1026.66 1026.01 1025.92 1025.62 1025.04 1024.31 1023.74 1022.94 1022.39 1022.08 1021.46 1020.80 1020.23 1019.65 1019.13 1018.77 1018.32 1017.87 1017.29 1016.69
1023.21 1023.49 1023.65 1023.87 1023.99 1024.13 1024.34 1024.51 1024.42 1024.61 1024.93 1025.14 1025.30 1025.51 1025.68 1025.70 1025.95 1026.14 1026.28 1026.48 1026.47 1026.38 1026.50 1026.45 1026.01 1025.68 1025.27 1024.68 1023.98 1023.44 1022.93 1022.46 1021.81 1021.20 1020.57 1019.91 1019.34 1018.85 1018.33 1017.81 1017.38 1016.70 1015.98
1023.09 1023.27 1023.34 1023.42 1023.51 1023.71 1023.94 1024.20 1024.24 1024.56 1024.73 1024.84 1024.86 1024.87 1025.10 1025.36 1025.63 1025.78 1026.07 1026.13 1026.18 1026.33 1026.14 1026.00 1025.82 1025.47 1025.10 1024.36 1023.94 1023.48 1022.75 1022.28 1021.56 1020.89 1020.17 1019.65 1019.09 1018.51 1017.93 1017.35 1016.93 1016.26 1015.41
1022.81 1022.95 1023.02 1023.02 1022.97 1023.21 1023.49 1023.82 1023.94 1024.16 1024.51 1024.80 1024.82 1024.68 1024.87 1025.03 1024.89 1025.32 1025.52 1025.70 1025.90 1025.91 1025.80 1025.72 1025.58 1025.22 1024.69 1024.21 1023.88 1023.25 1022.76 1022.08 1021.25 1020.60 1019.95 1019.56 1018.92 1018.24 1017.58 1016.83 1016.38 1016.02 1015.09
1022.29 1022.72 1022.61 1022.60 1022.66 1022.60 1022.66 1023.06 1023.43 1023.87 1024.00 1024.32 1024.49 1024.50 1024.57 1024.54 1024.64 1024.88 1024.82 1025.23 1025.33 1025.42 1025.48 1025.53 1025.33 1025.07 1024.66 1024.36 1023.75 1023.14 1022.54 1021.90 1021.00 1020.05 1019.84 1019.17 1018.66 1017.86 1017.21 1016.51 1015.73 1015.60 1015.25
1022.53 1022.34 1022.42 1022.28 1022.03 1021.98 1022.05 1022.42 1023.04 1023.77 1024.21 1024.60 1024.66 1024.51 1024.54 1024.60 1024.76 1024.92 1024.85 1025.08 1024.99 1024.93 1024.94 1025.07 1024.96 1024.81 1024.42 1023.99 1023.44 1022.75 1022.13 1021.55 1020.84 1019.87 1019.83 1018.98 1017.91 1017.53 1016.65 1015.84 1015.17 1014.68 1014.51
1022.34 1022.24 1022.01 1021.91 1021.81 1021.62 1021.83 1022.21 1022.78 1023.21 1023.46 1023.72 1024.08 1024.16 1024.23 1024.31 1024.50 1024.65 1024.73 1024.62 1024.59 1024.63 1024.65 1024.53 1024.47 1024.19 1023.89 1023.30 1022.82 1022.13 1021.53 1020.88 1020.26 1019.48 1019.25 1018.75 1017.47 1017.17 1016.12 1015.31 1014.59 1014.18 1013.73
1022.27 1021.85 1021.65 1021.64 1021.55 1021.53 1021.72 1022.09 1022.65 1023.15 1023.46 1023.75 1023.86 1023.90 1023.90 1023.87 1024.10 1024.10 1024.21 1024.25 1024.23 1024.17 1024.06 1023.93 1023.73 1023.47 1023.09 1022.63 1022.12 1021.64 1021.28 1020.82 1019.90 1018.95 1018.46 1018.31 1017.35 1016.85 1015.83 1015.05 1014.42 1013.90 1013.56
1022.09 1021.77 1021.60 1021.51 1021.35 1021.36 1021.66 1022.00 1022.30 1022.75 1023.14 1023.49 1023.56 1023.61 1023.36 1023.51 1023.71 1023.74 1023.73 1023.92 1024.03 1023.90 1023.86 1023.70 1023.53 1023.19 1022.84 1022.43 1021.82 1021.58 1021.19 1020.75 1020.08 1018.84 1017.93 1017.89 1017.09 1016.88 1016.13 1015.11 1014.73 1014.22 1013.87
Wind_Speed
5 4 4 4 4 4 3 4 4 4 5 5 5 7 6 6 6 3 3 10 7 3 3 6 7 6 8 8 10 11 11 12 12 14 16 16 17 20 21 22 23 23 22
5 5 4 4 4 3 3 4 4 4 5 5 6 5 5 5 6 6 3 5 8 1 3 6 6 6 6 7 9 9 10 11 11 14 14 14 15 18 22 23 23 23 23
6 6 4 4 3 3 5 5 4 4 4 3 6 5 5 6 5 7 6 7 6 6 6 7 6 6 7 7 7 8 9 11 11 13 13 13 15 16 20 22 23 23 23
7 5 4 4 4 5 4 3 4 4 4 4 2 4 4 6 6 6 5 6 5 5 6 14 12 10 9 7 7 7 7 8 11 12 11 14 16 16 17 20 22 22 22
7 5 4 4 5 5 5 3 4 3 2 3 2 4 4 5 5 5 6 6 6 5 5 7 7 5 3 3 3 5 7 10 11 10 12 12 14 16 17 19 21 21 22
7 6 5 5 5 4 4 3 3 3 2 2 2 3 2 4 4 5 5 5 5 6 5 6 4 4 5 5 5 8 8 10 9 10 11 12 14 16 18 19 21 21 22
6 6 4 5 4 4 3 2 2 3 3 3 2 3 3 4 4 4 4 4 6 5 6 5 4 2 3 7 8 11 11 9 6 9 11 13 15 18 19 21 21 23 22
6 6 6 5 6 4 5 4 2 1 1 4 3 2 2 4 4 4 4 3 4 3 5 6 5 5 3 4 7 13 11 10 9 10 11 12 14 20 22 23 24 24 22
7 7 7 6 5 3 2 1 2 2 1 3 5 4 1 3 1 2 3 2 5 5 5 5 5 6 6 3 6 6 6 5 6 8 11 14 17 19 23 25 26 26 23
7 6 6 6 4 2 2 1 4 2 3 2 1 2 1 4 4 3 3 2 2 3 4 3 4 5 4 4 7 4 5 6 3 7 11 15 18 21 22 25 27 28 25
6 6 6 5 6 4 4 5 5 6 3 2 1 1 1 1 1 2 3 3 2 2 2 2 3 3 5 5 5 6 8 5 5 8 12 15 19 22 23 25 28 28 27
4 5 5 5 4 5 5 4 5 5 3 3 2 2 3 2 2 1 2 4 3 4 3 2 3 4 5 4 7 8 9 8 10 11 14 17 20 23 26 26 28 27 28
2 3 3 4 2 4 5 4 5 3 3 2 3 3 2 2 2 2 1 3 2 3 3 2 3 4 4 3 4 9 9 11 14 16 18 19 21 24 26 26 26 27 25
4 4 4 3 5 2 3 2 1 2 4 3 4 4 2 0 1 1 2 1 3 3 2 5 3 3 3 4 7 14 5 15 17 18 18 20 21 21 21 22 23 24 22
3 4 5 3 4 3 1 2 2 4 2 3 3 3 3 2 1 1 1 2 2 3 3 3 2 3 4 4 8 6 6 14 17 18 19 19 20 21 21 21 21 21 19
4 4 4 3 1 2 3 2 1 2 1 2 3 4 2 2 2 1 0 2 2 3 2 1 2 3 5 6 9 7 6 16 16 17 16 19 18 20 20 18 20 22 24
6 4 3 1 1 2 2 3 2 2 4 4 3 4 3 2 2 0 1 1 1 1 3 3 3 3 5 7 8 6 8 7 6 17 19 19 20 18 17 17 18 20 22
6 6 4 2 2 3 4 4 3 3 5 5 5 5 4 2 1 2 2 2 2 1 2 5 3 4 4 6 7 7 8 8 6 13 19 21 20 16 18 16 19 22 22
6 5 5 4 5 4 5 5 5 6 5 5 5 3 3 2 2 2 3 3 2 1 2 2 5 3 4 4 7 6 6 6 7 16 18 20 17 19 18 18 19 22 18
6 6 5 6 5 5 6 6 6 6 6 5 4 4 4 5 5 5 4 3 2 3 2 3 5 7 5 7 4 5 6 5 8 9 15 16 16 20 19 19 15 22 22
5 5 6 6 6 5 6 7 7 7 6 5 3 3 4 5 9 6 3 2 2 1 3 4 6 6 6 6 7 5 7 7 9 8 7 4 8 8 8 13 11 18 14
1 5 8 6 7 6 9 12 9 6 6 5 4 2 2 2 5 8 6 4 2 1 3 2 5 6 5 6 5 6 7 7 7 3 3 9 6 8 7 7 9 16 16
5 8 8 8 7 7 11 12 11 5 4 3 3 3 3 2 5 4 3 2 2 5 6 4 5 4 7 7 7 9 8 7 8 9 3 8 4 7 7 8 15 18 15
4 5 6 7 6 5 10 12 12 7 5 5 5 5 5 5 5 5 4 2 3 4 4 5 5 6 7 7 7 9 10 8 7 7 4 5 3 5 6 7 17 16 15
5 4 4 6 5 5 12 13 9 5 5 6 4 4 4 4 8 8 3 3 4 5 6 10 12 15 16 17 13 5 5 7 8 8 3 3 3 3 3 4 5 9 15
4 4 5 6 7 6 11 13 9 3 5 3 4 5 5 5 11 8 4 3 4 6 5 6 6 8 10 10 14 5 5 6 7 7 0 3 3 2 4 3 3 3 4
Wind_Direction
100 101 86 84 87 86 90 80 70 65 58 46 41 44 45 39 31 24 4 354 330 331 86 120 107 87 77 62 58 56 45 38 35 31 23 15 15 8 2 359 352 350 347
110 93 95 86 69 65 64 72 79 67 57 48 39 40 59 42 36 37 25 355 338 346 116 103 87 75 74 75 62 43 33 33 33 23 11 13 9 4 357 352 346 342 340
109 115 104 93 99 65 73 66 52 55 56 38 50 55 35 27 34 42 33 30 11 36 75 81 71 74 66 63 48 37 29 35 20 10 4 17 7 358 348 345 340 336 333
113 110 112 82 69 72 87 63 35 36 40 42 42 32 31 44 41 34 41 35 20 27 5 41 57 54 42 37 32 18 40 6 1 358 358 3 354 349 344 337 333 331 329
116 106 93 79 80 65 55 38 30 52 44 24 27 47 49 56 47 44 38 39 25 25 42 52 56 83 77 53 15 353 354 343 340 346 346 350 348 343 338 332 326 324 325
105 97 81 74 69 66 46 37 57 23 46 15 30 42 38 81 47 52 36 41 39 40 16 10 1 350 20 18 347 330 326 324 358 348 337 331 329 329 327 326 322 319 320
99 96 94 86 69 68 42 35 48 26 359 20 57 3 360 67 80 53 32 45 28 31 38 24 4 23 343 8 347 337 327 335 332 320 323 327 329 322 321 321 321 316 315
106 94 89 72 59 59 37 21 25 349 39 18 125 113 3 333 358 15 42 59 26 26 23 8 11 8 342 334 332 348 346 329 328 333 329 324 318 315 317 319 318 313 310
107 103 100 96 83 89 63 350 12 108 163 37 31 139 79 225 328 315 25 17 19 17 359 7 1 347 350 352 2 2 59 20 337 319 315 315 315 315 316 316 317 309 306
102 102 98 96 94 73 61 90 82 106 109 108 29 53 131 165 188 285 310 355 20 10 336 337 331 330 334 323 319 295 247 256 283 306 309 313 317 317 314 312 312 308 305
104 105 105 97 76 75 88 109 97 89 95 131 167 248 290 222 139 149 226 284 309 276 265 276 305 301 309 299 300 298 326 352 345 332 323 319 317 313 309 308 306 302 300
92 80 85 78 84 129 131 138 119 120 141 143 158 173 179 182 237 213 253 265 229 274 241 290 330 308 298 325 320 14 4 6 350 334 324 318 312 308 303 300 298 295 292
96 80 96 91 85 150 154 155 135 151 161 174 194 218 195 217 185 199 170 276 259 276 278 274 269 284 331 2 346 343 341 338 330 321 314 308 305 300 297 295 290 288 291
135 130 79 58 66 126 162 185 183 191 181 203 222 222 229 222 173 121 183 186 310 282 285 261 302 353 7 334 326 330 305 324 322 316 315 307 303 301 297 296 290 286 287
138 101 91 58 60 41 155 215 312 315 309 251 262 163 142 156 32 270 235 181 179 297 295 309 327 4 336 315 312 315 316 313 316 317 306 308 309 307 302 303 302 296 291
116 101 100 86 49 346 33 69 309 347 329 278 182 165 167 216 273 359 158 134 137 177 275 298 276 300 306 308 305 317 300 316 306 308 312 311 313 321 313 300 300 293 285
142 136 137 146 277 326 324 140 195 164 152 133 142 168 188 173 201 68 97 99 128 152 248 282 258 291 295 297 303 295 303 298 302 320 317 320 319 317 321 312 305 304 300
157 164 166 215 266 287 212 214 239 153 179 189 193 192 220 215 268 142 168 175 209 222 201 277 294 304 283 291 289 305 309 314 316 313 326 321 314 317 316 315 315 305 294
162 173 177 220 250 248 224 229 190 157 180 196 190 200 264 205 204 206 226 229 224 236 225 242 293 284 279 288 301 302 293 301 304 319 313 314 315 318 317 314 320 312 286
169 197 210 228 239 240 218 195 163 170 178 174 174 179 181 182 206 224 229 227 239 262 273 288 292 293 290 297 276 294 302 301 299 307 297 290 310 311 312 310 326 317 293
198 217 235 246 240 228 220 201 186 183 180 186 182 164 182 214 229 196 175 209 205 277 303 298 295 295 307 315 317 305 297 299 299 286 284 295 304 299 296 305 313 315 326
194 252 254 249 241 236 215 195 176 181 185 185 194 193 220 170 156 155 136 144 151 272 277 255 294 294 295 304 294 295 296 304 311 261 323 305 287 290 286 288 291 292 316
282 276 281 259 246 231 215 184 167 163 156 209 225 197 238 173 170 186 189 230 329 331 307 275 280 260 300 297 297 298 291 286 282 294 271 294 276 282 283 282 293 297 267
282 275 288 284 263 238 187 169 163 169 177 186 202 205 216 212 210 206 209 295 312 300 289 286 275 284 275 283 275 288 289 291 279 279 238 271 285 280 282 279 289 286 287
292 286 280 293 261 223 179 176 159 152 175 208 214 221 222 216 218 211 217 291 300 294 299 295 301 306 311 315 315 317 316 320 311 305 239 254 277 278 274 290 314 356 336
271 294 298 291 249 204 189 183 177 163 172 199 225 220 236 200 201 211 207 241 281 283 286 291 291 299 303 297 313 301 294 301 304 304 246 258 269 247 319 282 303 336 342